[[{"header":{"parameterUnit":"m.s-1","parameterCategory":1,"la1":30.2991,"la2":30.254,"lo1":-89.0895,"lo2":-89.0444,"dy":0.0017,"dx":0.0017,"nx":28,"ny":28,"refTime":"2024-08-20T03:00:00:Z","depth":0,"parameterNumber":2,"parameterNumberName":"U-component_of_WINDS"},"data":[0,0,0,0,0,0,0,0,0,0,0,0,0,0,0,0,0,0,0,0,0,0,0,0,0,0,0,0,0,0,0,0,0,0,0,0,0,0,0,0,0,0,0,0,0,0,0,0,0,0,0,0,0,0,0,0,0,0,-4.1002,-4.1002,0,-4.0973,-4.0973,-4.0973,-4.0862,-4.0859,-4.0857,-4.0854,-4.0826,-4.0827,-4.0829,0,0,0,0,0,0,0,0,0,0,0,0,0,-4.0964,-4.0966,-4.1002,-4.1002,-4.1002,-4.0973,-4.0973,-4.0972,-4.0862,-4.0859,-4.0856,-4.0853,-4.0825,-4.0827,-4.0829,0,0,0,0,0,0,0,0,0,0,0,0,0,-4.0963,-4.0966,-4.1002,-4.0943,-4.0937,-4.0973,-4.0973,-4.0972,-4.0863,-4.0859,-4.0855,-4.0852,-4.0825,-4.0827,-4.0829,-4.0921,0,0,-4.0837,-4.0838,0,0,0,0,0,0,0,0,-4.0963,-4.0964,-4.0952,-4.0947,-4.0941,-4.0917,-4.0949,-4.0955,-4.0864,-4.0891,-4.0854,-4.085,-4.0859,-4.0859,-4.0862,-4.0919,-4.0918,-4.0837,-4.0839,-4.084,-4.084,0,0,0,0,0,0,0,-4.0963,-4.0965,-4.0991,-4.0952,-4.0945,-4.0919,-4.0914,-4.095,-4.0897,-4.0888,-4.088,-4.0878,-4.0856,-4.086,-4.086,-4.0918,-4.0837,-4.0839,-4.0841,-4.0842,-4.105,-4.1054,0,0,0,0,0,0,-4.0972,-4.0966,-4.0992,-4.099,-4.0943,-4.0922,-4.0917,-4.0929,-4.0896,-4.0888,-4.0882,-4.0873,-4.0857,-4.0858,-4.0859,-4.0964,-4.084,-4.0842,-4.0843,-4.1046,-4.1051,-4.1056,0,0,0,0,0,0,-4.0971,-4.0975,-4.0993,-4.0976,-4.0976,-4.0927,-4.0941,-4.093,-4.0934,-4.0891,-4.0881,-4.0895,-4.0854,-4.0855,-4.0906,-4.0962,-4.0843,-4.0845,-4.1041,-4.1048,-4.1053,-4.1176,0,0,0,0,0,0,-4.0971,-4.0975,-4.1009,-4.0977,-4.0977,-4.1041,-4.0944,-4.0932,-4.0938,-4.0927,-4.0901,-4.0893,-4.0851,-4.0903,-4.0909,-4.0963,-4.0847,-4.1036,-4.1044,-4.1051,-4.1167,-4.1186,-4.1202,0,0,0,0,0,-4.097,-4.1045,-4.1011,-4.1015,-4.1018,-4.1044,-4.1044,-4.0994,-4.0943,-4.0977,-4.095,-4.0894,-4.0955,-4.091,-4.0915,-4.0971,-4.1032,-4.1042,-4.1051,-4.1159,-4.1182,-4.1201,0,0,0,0,0,0,-4.1085,-4.104,-4.1002,-4.1069,-4.1061,-4.1025,-4.1066,-4.1019,-4.1026,-4.1016,-4.0953,-4.0948,-4.1009,-4.0994,-4.0945,-4.1058,-4.0984,-4.0995,-4.1065,-4.1086,-4.1104,-4.1106,-4.0849,0,0,0,0,0,-4.1118,-4.1142,-4.1101,-4.1165,-4.1163,-4.1116,-4.1125,-4.1087,-4.1077,-4.1073,-4.1049,-4.1042,-4.1059,-4.1072,-4.1085,-4.1164,-4.1158,-4.1205,-4.1223,-4.1237,-4.1248,-4.129,-4.1311,-4.1086,-4.1086,-4.1086,0,0,-4.1187,-4.1165,-4.1184,-4.1187,-4.1177,-4.1204,-4.1114,-4.1146,-4.1166,-4.1078,-4.1125,-4.1107,-4.1095,-4.1161,-4.1188,-4.1151,-4.1308,-4.1249,-4.1261,-4.1263,-4.1301,-4.1323,-4.1342,-4.1092,-4.1091,-4.109,0,0,-4.1327,-4.1312,-4.1364,-4.1355,-4.134,-4.1309,-4.1321,-4.1293,-4.1278,-4.1324,-4.1259,-4.1282,-4.1312,-4.1307,-4.1308,-4.1447,-4.1397,-4.1453,-4.1544,-4.1586,-4.1604,-4.1619,-4.167,-4.1689,-4.1463,-4.1463,-4.1464,0,-4.1414,-4.1452,-4.1396,-4.1433,-4.1437,-4.1358,-4.1411,-4.1405,-4.1396,-4.1401,-4.1359,-4.1397,-4.1383,-4.1447,-4.1481,-4.1484,-4.1497,-4.1456,-4.1606,-4.1621,-4.1634,-4.1682,-4.1701,-4.147,-4.147,-4.1469,-4.1468,0,-4.1561,-4.1589,-4.1632,-4.1626,-4.1634,-4.1679,-4.1631,-4.1646,-4.1608,-4.1581,-4.163,-4.161,-4.1619,-4.1631,-4.1594,-4.169,-4.1668,-4.1617,-4.1542,-4.1664,-4.1707,-4.1725,-4.1481,-4.1478,-4.1476,-4.1474,0,0,-4.1773,-4.1735,-4.1752,-4.1748,-4.1727,-4.1747,-4.1789,-4.1797,-4.1812,-4.1809,-4.1843,-4.1871,-4.1824,-4.1826,-4.1787,-4.1824,-4.1937,-4.1768,-4.1767,-4.1801,-4.2043,-4.2083,-4.2105,-4.1903,-4.1906,-4.1909,-4.2045,0,-4.1906,-4.1975,-4.1926,-4.2003,-4.2029,-4.1955,-4.1991,-4.1983,-4.1959,-4.1978,-4.1951,-4.1973,-4.1909,-4.1909,-4.1942,-4.1916,-4.1985,-4.1905,-4.1935,-4.1937,-4.1942,-4.2127,-4.2169,-4.2298,-4.2061,-4.2064,-4.2066,0,-4.2071,-4.2075,-4.2155,-4.213,-4.2138,-4.2172,-4.2176,-4.2195,-4.2184,-4.2164,-4.2167,-4.2119,-4.2159,-4.2085,-4.214,-4.2087,-4.2096,-4.2086,-4.209,-4.2091,-4.201,-4.2135,-4.2338,-4.2358,-4.2093,-4.209,-4.2089,0,-4.2219,-4.2244,-4.2296,-4.2295,-4.2266,-4.2291,-4.228,-4.2265,-4.2274,-4.2278,-4.2283,-4.2292,-4.2297,-4.2306,-4.2262,-4.2212,-4.2324,-4.2246,-4.2309,-4.2311,-4.2336,-4.2336,-4.2545,-4.2341,-4.2341,-4.2341,-4.234,0,-4.2374,-4.2426,-4.2362,-4.2393,-4.245,-4.2394,-4.2452,-4.2433,-4.2421,-4.2448,-4.2385,-4.2412,-4.2352,-4.2374,-4.234,-4.2391,-4.2394,-4.238,-4.2371,-4.2386,-4.2388,-4.2392,-4.2382,-4.2346,-4.2345,-4.2344,-4.2343,0,-4.2549,-4.2507,-4.2559,-4.2527,-4.252,-4.2564,-4.2537,-4.2565,-4.2538,-4.2573,-4.2579,-4.2535,-4.2557,-4.2515,-4.2531,-4.2508,-4.2581,-4.2557,-4.2585,-4.2578,-4.2645,-4.264,-4.2864,-4.2892,-4.267,-4.2672,-4.2674,0,-4.265,-4.2689,-4.2662,-4.2675,-4.2668,-4.2691,-4.2699,-4.2646,-4.2658,-4.2649,-4.2679,-4.2696,-4.2706,-4.2746,-4.2716,-4.2729,-4.2705,-4.2783,-4.2707,-4.2722,-4.2708,-4.2706,-4.271,-4.2799,-4.2802,-4.2804,-4.2806,0,-4.2836,-4.2814,-4.2829,-4.2837,-4.2849,-4.2853,-4.2852,-4.2867,-4.281,-4.2827,-4.2849,-4.2857,-4.2874,-4.2892,-4.2898,-4.2887,-4.2838,-4.283,-4.2846,-4.2863,-4.2878,-4.2872,-4.2629,-4.2825,-4.2823,-4.2822,-4.2821,-4.282,-4.2978,-4.3009,-4.2995,-4.3014,-4.3008,-4.3009,-4.3035,-4.301,-4.3027,-4.3037,-4.3004,-4.3034,-4.3023,-4.3026,-4.3021,-4.3044,-4.3009,-4.3031,-4.3037,-4.3044,-4.3055,-4.2873,-4.3045,-4.3044,-4.3043,-4.3043,-4.3042,0,-4.3162,-4.3149,-4.3167,-4.3168,-4.3183,-4.3135,-4.3132,-4.3148,-4.3175,-4.3168,-4.318,-4.3206,-4.3224,-4.3196,-4.3209,-4.3233,-4.3211,-4.3238,-4.3236,-4.3235,-4.3085,-4.307,-4.3256,-4.3256,-4.3256,-4.3256,-4.3256,-4.3256,-4.3259,-4.3309,-4.3286,-4.3333,-4.332,-4.3349,-4.3351,-4.3353,-4.3347,-4.3379,-4.3393,-4.3375,-4.336,-4.3372,-4.3386,-4.3378,-4.3386,-4.3422,-4.3406,-4.3266,-4.3245,-4.3225,-4.3212,-4.3424,-4.3424,-4.3554,-4.3555,-4.3556]},{"header":{"parameterUnit":"m.s-1","parameterCategory":1,"la1":30.2991,"la2":30.254,"lo1":-89.0895,"lo2":-89.0444,"dy":0.0017,"dx":0.0017,"nx":28,"ny":28,"refTime":"2024-08-20T03:00:00:Z","depth":0,"parameterNumber":3,"parameterNumberName":"V-component_of_WINDS"},"data":[0,0,0,0,0,0,0,0,0,0,0,0,0,0,0,0,0,0,0,0,0,0,0,0,0,0,0,0,0,0,0,0,0,0,0,0,0,0,0,0,0,0,0,0,0,0,0,0,0,0,0,0,0,0,0,0,0,0,-3.1321,-3.1321,0,-3.1377,-3.1378,-3.1378,-3.1376,-3.1375,-3.1374,-3.1374,-3.1429,-3.1432,-3.1434,0,0,0,0,0,0,0,0,0,0,0,0,0,-3.1208,-3.121,-3.1321,-3.1321,-3.1322,-3.1377,-3.1378,-3.1378,-3.1376,-3.1375,-3.1374,-3.1373,-3.1429,-3.1431,-3.1434,0,0,0,0,0,0,0,0,0,0,0,0,0,-3.126,-3.1211,-3.132,-3.1327,-3.1329,-3.1377,-3.1378,-3.1379,-3.1376,-3.1375,-3.1374,-3.1373,-3.1428,-3.1431,-3.1434,-3.1478,0,0,-3.1445,-3.1446,0,0,0,0,0,0,0,0,-3.1257,-3.1264,-3.1326,-3.1327,-3.1328,-3.1368,-3.1358,-3.1412,-3.1377,-3.1358,-3.1374,-3.1372,-3.141,-3.1415,-3.1428,-3.1481,-3.1483,-3.1445,-3.1447,-3.1448,-3.1449,0,0,0,0,0,0,0,-3.1253,-3.1261,-3.1343,-3.1327,-3.1328,-3.1327,-3.1333,-3.1368,-3.139,-3.136,-3.136,-3.1366,-3.141,-3.1425,-3.1429,-3.1484,-3.1445,-3.1448,-3.145,-3.1451,-3.1575,-3.1576,0,0,0,0,0,0,-3.1249,-3.1259,-3.1341,-3.1344,-3.1289,-3.133,-3.1337,-3.1357,-3.1389,-3.1393,-3.1367,-3.1366,-3.1419,-3.1425,-3.1431,-3.1484,-3.1448,-3.1451,-3.1453,-3.1574,-3.1575,-3.1577,0,0,0,0,0,0,-3.1246,-3.1256,-3.1339,-3.1302,-3.1312,-3.1333,-3.1355,-3.1358,-3.1373,-3.1395,-3.1399,-3.1378,-3.1419,-3.1426,-3.1466,-3.1486,-3.1453,-3.1456,-3.1572,-3.1574,-3.1576,-3.1591,0,0,0,0,0,0,-3.1243,-3.1255,-3.1273,-3.1302,-3.1314,-3.1374,-3.1357,-3.136,-3.1378,-3.1377,-3.1406,-3.141,-3.1418,-3.1462,-3.147,-3.149,-3.1458,-3.1571,-3.1573,-3.1575,-3.1589,-3.1593,-3.1597,0,0,0,0,0,-3.1239,-3.1275,-3.1274,-3.1284,-3.1337,-3.1375,-3.1382,-3.1392,-3.138,-3.1398,-3.1412,-3.1409,-3.1482,-3.1466,-3.1475,-3.1497,-3.1569,-3.1572,-3.1575,-3.1587,-3.1593,-3.1597,0,0,0,0,0,0,-3.1247,-3.1279,-3.1278,-3.1325,-3.1347,-3.1375,-3.1398,-3.1397,-3.1423,-3.1421,-3.1431,-3.1438,-3.1478,-3.1491,-3.1472,-3.154,-3.1524,-3.1529,-3.153,-3.1535,-3.1539,-3.1536,-3.1461,0,0,0,0,0,-3.1254,-3.1284,-3.131,-3.1348,-3.136,-3.1377,-3.1394,-3.1399,-3.1423,-3.1432,-3.145,-3.1472,-3.15,-3.1518,-3.1545,-3.1591,-3.1596,-3.161,-3.1614,-3.1617,-3.1621,-3.1645,-3.1651,-3.1586,-3.1586,-3.1586,0,0,-3.127,-3.1291,-3.1309,-3.135,-3.1369,-3.1398,-3.1385,-3.1417,-3.1438,-3.1437,-3.1476,-3.1489,-3.1515,-3.1558,-3.1577,-3.157,-3.164,-3.1621,-3.1623,-3.1626,-3.1649,-3.1655,-3.166,-3.1588,-3.1588,-3.1588,0,0,-3.1313,-3.1332,-3.1366,-3.1384,-3.1412,-3.1423,-3.1431,-3.1458,-3.1467,-3.1507,-3.1506,-3.1531,-3.1579,-3.1597,-3.1613,-3.1661,-3.1659,-3.1669,-3.1691,-3.1714,-3.1719,-3.1723,-3.174,-3.1746,-3.1673,-3.1673,-3.1673,0,-3.1328,-3.1374,-3.1383,-3.1415,-3.1433,-3.1433,-3.1467,-3.1484,-3.1519,-3.153,-3.1522,-3.1582,-3.1599,-3.1645,-3.1657,-3.1669,-3.1678,-3.1666,-3.1717,-3.1722,-3.1726,-3.1742,-3.1749,-3.1674,-3.1674,-3.1674,-3.1674,0,-3.1391,-3.1422,-3.1446,-3.148,-3.15,-3.1533,-3.1546,-3.1565,-3.1568,-3.158,-3.1619,-3.1639,-3.167,-3.1681,-3.1684,-3.1728,-3.1722,-3.1715,-3.17,-3.1733,-3.1749,-3.1755,-3.1676,-3.1675,-3.1675,-3.1675,0,0,-3.1442,-3.148,-3.1489,-3.1504,-3.1534,-3.1558,-3.1589,-3.162,-3.1636,-3.1659,-3.1686,-3.1726,-3.1719,-3.1737,-3.1741,-3.1762,-3.1797,-3.1752,-3.1753,-3.176,-3.1845,-3.185,-3.1858,-3.1796,-3.1797,-3.1798,-3.1843,0,-3.1488,-3.1546,-3.1555,-3.1605,-3.1633,-3.1633,-3.166,-3.1681,-3.1692,-3.1716,-3.1728,-3.1756,-3.1746,-3.1756,-3.1776,-3.1789,-3.1815,-3.1786,-3.182,-3.1821,-3.1814,-3.1866,-3.1872,-3.1913,-3.1849,-3.185,-3.1851,0,-3.1551,-3.1576,-3.1629,-3.1654,-3.1666,-3.1691,-3.1719,-3.1743,-3.1766,-3.1772,-3.1791,-3.1793,-3.1824,-3.1807,-3.185,-3.183,-3.1844,-3.1852,-3.1854,-3.1858,-3.1838,-3.1871,-3.1927,-3.1933,-3.186,-3.186,-3.1859,0,-3.1582,-3.163,-3.1668,-3.168,-3.1711,-3.1728,-3.1741,-3.1762,-3.178,-3.1804,-3.1815,-3.1842,-3.1856,-3.1877,-3.1885,-3.1872,-3.1928,-3.1911,-3.1933,-3.1933,-3.1946,-3.1945,-3.2005,-3.1954,-3.1954,-3.1954,-3.1954,0,-3.1633,-3.1666,-3.1682,-3.1706,-3.1741,-3.175,-3.1785,-3.1797,-3.1816,-3.1841,-3.1841,-3.1864,-3.1874,-3.1899,-3.1905,-3.194,-3.1946,-3.1952,-3.1953,-3.1952,-3.1951,-3.1962,-3.1959,-3.1956,-3.1955,-3.1955,-3.1955,0,-3.1676,-3.1688,-3.1729,-3.1754,-3.1761,-3.1786,-3.1807,-3.1828,-3.1838,-3.187,-3.1877,-3.1893,-3.1921,-3.1932,-3.1966,-3.197,-3.201,-3.2009,-3.2003,-3.2003,-3.2024,-3.2022,-3.2093,-3.2103,-3.2046,-3.2047,-3.2047,0,-3.1708,-3.1733,-3.176,-3.1777,-3.1791,-3.1818,-3.1835,-3.1844,-3.1862,-3.1889,-3.1907,-3.1935,-3.1958,-3.2003,-3.2017,-3.2043,-3.2043,-3.2066,-3.2046,-3.2044,-3.2043,-3.2041,-3.2043,-3.2069,-3.207,-3.207,-3.2071,0,-3.1763,-3.1767,-3.1793,-3.1821,-3.1842,-3.1863,-3.1885,-3.1898,-3.1909,-3.1929,-3.1959,-3.1976,-3.2011,-3.2039,-3.2065,-3.2077,-3.2076,-3.2076,-3.2083,-3.2082,-3.2077,-3.208,-3.2012,-3.2075,-3.2075,-3.2074,-3.2074,-3.2074,-3.1801,-3.1823,-3.1845,-3.1873,-3.189,-3.1909,-3.1931,-3.1943,-3.1968,-3.1997,-3.2,-3.2032,-3.2052,-3.2087,-3.21,-3.2124,-3.2117,-3.2127,-3.2129,-3.2132,-3.2133,-3.2073,-3.2128,-3.2128,-3.2128,-3.2128,-3.2128,0,-3.1856,-3.187,-3.1896,-3.1926,-3.1947,-3.1944,-3.1967,-3.1985,-3.2012,-3.2032,-3.2054,-3.2087,-3.2113,-3.2128,-3.2154,-3.217,-3.217,-3.2177,-3.2176,-3.2178,-3.2137,-3.2129,-3.2176,-3.2176,-3.2176,-3.2176,-3.2176,-3.2176,-3.1888,-3.1924,-3.1931,-3.1975,-3.1989,-3.202,-3.2033,-3.205,-3.2065,-3.2102,-3.2124,-3.2134,-3.2151,-3.2178,-3.2201,-3.2205,-3.2214,-3.2222,-3.2225,-3.2186,-3.2181,-3.2177,-3.2169,-3.2224,-3.2224,-3.2264,-3.2264,-3.2265]}]]